Location: Big Prairie
(40.6673°N, 82.0952°W)
Time: 18:11:49
(UTC+00:00)

Meteor 1-26 Rocket - Pass Details

Date: 03 July 2022
Orbit: 811 x 924 km, 81.3° (Epoch: 18 August)

Event Time Altitude Azimuth Distance (km) Brightness Sun altitude
Rises 05:51:45 0° 359° (N) 3,482 8.7 -26.2°
Reaches altitude 10° 05:54:24 10° 8° (N) 2,558 7.7 -26.2°
Maximum altitude 05:59:43 36° 73° (ENE) 1,408 5.5 -26.1°
Enters shadow 06:01:55 27° 114° (ESE) 1,670 5.5 -26.0°
